FW7253 Weather Reports


time (UTC)temp
F
wind
direction
speed
knots
gust
knots
rain 1hr
in
rain 24hr
in
rain mn
in
humidity
%
barometer
mb
20260508121034 59 209 8.7 14.8 0.00 0.00 0.00 42 1023.9
20260508120533 59 226 7.8 14.8 0.00 0.00 0.00 42 1023.7
20260508120104 59 202 7.0 14.8 0.00 0.00 0.00 42 1023.7
20260508115534 60 219 8.7 14.8 0.00 0.00 0.00 43 1023.8
20260508115033 60 246 8.7 14.8 0.00 0.00 0.00 42 1023.8
20260508114555 59 224 7.8 13.9 0.00 0.00 0.00 42 1023.8
20260508114037 60 228 8.7 13.9 0.00 0.00 0.00 43 1023.7
20260508113558 60 202 5.2 13.0 0.00 0.00 0.00 45 1023.7
20260508113100 60 184 6.1 13.0 0.00 0.00 0.00 42 1023.7
20260508112534 60 193 7.8 13.0 0.00 0.00 0.00 42 1023.7
20260508112033 60 233 7.0 13.0 0.00 0.00 0.00 44 1023.8
20260508111541 59 231 7.0 13.0 0.00 0.00 0.00 44 1023.8
20260508111033 59 80 5.2 11.3 0.00 0.00 0.00 47 1023.6
20260508110534 58 115 5.2 15.6 0.00 0.00 0.00 44 1023.4
20260508110038 58 220 7.0 15.6 0.00 0.00 0.00 47 1023.7
20260508105534 58 240 7.8 14.8 0.00 0.00 0.00 48 1023.7
20260508105034 58 207 7.8 12.2 0.00 0.00 0.00 46 1023.7
20260508104547 58 219 7.8 12.2 0.00 0.00 0.00 48 1023.5
20260508104033 57 248 7.8 12.2 0.00 0.00 0.00 48 1023.6
20260508103533 58 221 7.8 11.3 0.00 0.00 0.00 49 1023.4
20260508103053 57 223 7.0 11.3 0.00 0.00 0.00 49 1023.6
20260508102533 56 210 7.0 12.2 0.00 0.00 0.00 51 1023.7
20260508102033 56 188 5.2 12.2 0.00 0.00 0.00 51 1023.5
20260508101551 57 100 6.1 10.4 0.00 0.00 0.00 52 1023.5
20260508101034 56 186 6.1 10.4 0.00 0.00 0.00 50 1023.6
20260508100533 58 214 6.1 9.6 0.00 0.00 0.00 50 1023.5
20260508100040 58 103 6.1 13.9 0.00 0.00 0.00 52 1023.5
20260508095533 58 181 5.2 13.9 0.00 0.00 0.00 50 1023.5
20260508095033 57 214 9.6 13.0 0.00 0.00 0.00 49 1023.6
20260508094540 57 224 5.2 11.3 0.00 0.00 0.00 52 1023.6
20260508094033 56 113 4.3 9.6 0.00 0.00 0.00 53 1023.6
20260508093536 57 126 6.1 12.2 0.00 0.00 0.00 53 1023.7
20260508093046 56 179 5.2 12.2 0.00 0.00 0.00 51 1023.7
20260508092535 56 124 5.2 11.3 0.00 0.00 0.00 53 1023.5
20260508092033 56 160 4.3 11.3 0.00 0.00 0.00 54 1023.7
20260508091545 55 226 5.2 11.3 0.00 0.00 0.00 52 1023.7
20260508091033 55 221 5.2 10.4 0.00 0.00 0.00 51 1023.7
20260508090533 55 134 4.3 10.4 0.00 0.00 0.00 51 1023.7
20260508090050 55 181 4.3 10.4 0.00 0.00 0.00 50 1023.8
20260508085534 55 115 3.5 11.3 0.00 0.00 0.00 52 1023.7
20260508085033 54 162 4.3 11.3 0.00 0.00 0.00 51 1023.8
20260508084539 55 147 6.1 11.3 0.00 0.00 0.00 52 1023.7
20260508084034 54 95 2.6 10.4 0.00 0.00 0.00 55 1023.6
20260508083532 53 173 3.5 10.4 0.00 0.00 0.00 57 1023.8
20260508083149 53 107 2.6 7.8 0.00 0.00 0.00 56 1023.7
20260508082536 52 173 2.6 8.7 0.00 0.00 0.00 58 1023.9
20260508082034 52 90 3.5 8.7 0.00 0.00 0.00 59 1023.8
20260508081548 52 109 2.6 8.7 0.00 0.00 0.00 58 1023.7
20260508081033 52 169 2.6 7.8 0.00 0.00 0.00 59 1023.8
20260508080535 52 222 3.5 7.8 0.00 0.00 0.00 59 1023.7
20260508080048 51 225 2.6 7.8 0.00 0.00 0.00 57 1023.7
20260508075534 51 202 2.6 7.8 0.00 0.00 0.00 57 1023.7
20260508075033 51 122 3.5 7.8 0.00 0.00 0.00 58 1023.7
20260508074547 50 154 2.6 6.1 0.00 0.00 0.00 60 1023.7
20260508074035 50 124 2.6 6.1 0.00 0.00 0.00 60 1023.6
20260508073534 50 104 1.7 5.2 0.00 0.00 0.00 64 1023.6
20260508073045 49 89 1.7 6.1 0.00 0.00 0.00 65 1023.6
20260508072534 48 89 2.6 6.1 0.00 0.00 0.00 67 1023.7
20260508072034 47 174 1.7 5.2 0.00 0.00 0.00 68 1023.7
20260508071541 47 90 0.9 3.5 0.00 0.00 0.00 68 1023.6
20260508071033 46 148 0.0 2.6 0.00 0.00 0.00 68 1023.6
20260508070534 46 0 1.7 2.6 0.00 0.00 0.00 67 1023.6
20260508070040 45 222 1.7 2.6 0.00 0.00 0.00 68 1023.5
20260508065533 45 0 0.9 2.6 0.00 0.00 0.00 68 1023.5
20260508065035 44 0 0.0 0.9 0.00 0.00 0.00 65 1023.6
20260508064542 43 0 0.0 0.9 0.00 0.00 0.00 62 1023.6
20260508064033 42 0 0.0 0.9 0.00 0.00 0.00 60 1023.4
20260508063533 42 219 0.9 0.9 0.00 0.00 0.00 58 1023.4
20260508063056 42 209 0.0 0.9 0.00 0.00 0.00 60 1023.5
20260508062533 41 0 0.0 1.7 0.00 0.00 0.00 63 1023.5
20260508062033 41 280 0.0 1.7 0.00 0.00 0.00 63 1023.3
20260508061548 40 294 0.9 1.7 0.00 0.00 0.00 63 1023.3
20260508061034 39 287 0.0 0.9 0.00 0.00 0.00 68 1023.1
20260508060533 39 0 0.0 0.0 0.00 0.00 0.00 72 1023.3
20260508060046 38 0 0.0 0.0 0.00 0.00 0.00 76 1023.1
20260508055533 37 0 0.0 0.0 0.00 0.00 0.00 77 1023.1
20260508055033 37 0 0.0 0.0 0.00 0.00 0.00 78 1023.1
20260508054544 35 0 0.0 0.0 0.00 0.00 0.00 79 1023.0
20260508054033 35 0 0.0 0.0 0.00 0.00 0.00 79 1023.0
20260508053533 34 0 0.0 0.0 0.00 0.00 0.00 80 1022.9
20260508053042 34 0 0.0 0.0 0.00 0.00 0.00 80 1022.9
20260508052533 33 0 0.0 0.0 0.00 0.00 0.00 83 1023.0
20260508052032 33 0 0.0 0.0 0.00 0.00 0.00 85 1023.0
20260508051543 32 0 0.0 0.0 0.00 0.00 0.00 85 1023.0
20260508051033 32 0 0.0 0.0 0.00 0.00 0.00 86 1022.9
20260508050533 32 0 0.0 0.9 0.00 0.00 0.00 86 1022.9
20260508050048 31 0 0.0 0.9 0.00 0.00 0.00 87 1022.8
20260508045532 30 0 0.0 0.0 0.00 0.00 0.00 86 1022.8
20260508045032 30 0 0.0 0.0 0.00 0.00 0.00 86 1022.7
20260508044545 30 0 0.0 0.0 0.00 0.00 0.00 86 1022.7
20260508044032 30 0 0.0 0.0 0.00 0.00 0.00 86 1022.6
20260508043533 30 0 0.0 0.0 0.00 0.00 0.00 86 1022.4
20260508043056 30 0 0.0 0.0 0.00 0.00 0.00 85 1022.5
20260508042533 29 0 0.0 0.0 0.00 0.00 0.00 85 1022.4
20260508042035 29 0 0.0 0.0 0.00 0.00 0.00 85 1022.4
20260508041550 29 0 0.0 0.0 0.00 0.00 0.00 85 1022.4
20260508041035 29 0 0.0 0.0 0.00 0.00 0.00 84 1022.3
20260508040533 29 0 0.0 0.0 0.00 0.00 0.00 84 1022.3
20260508040042 29 0 0.0 0.0 0.00 0.00 0.00 84 1022.3
20260508035533 29 0 0.0 0.0 0.00 0.00 0.00 84 1022.2
20260508035033 29 0 0.0 0.0 0.00 0.00 0.00 85 1022.2
20260508034548 29 0 0.0 0.0 0.00 0.00 0.00 86 1022.2
20260508034032 29 0 0.0 0.0 0.00 0.00 0.00 87 1022.2
20260508033532 29 0 0.0 0.0 0.00 0.00 0.00 87 1022.1
20260508033039 29 0 0.0 0.0 0.00 0.00 0.00 87 1022.1
20260508032533 29 0 0.0 0.0 0.00 0.00 0.00 87 1022.0
20260508032035 29 0 0.0 0.0 0.00 0.00 0.00 87 1022.1
20260508031544 29 0 0.0 0.0 0.00 0.00 0.00 87 1022.1
20260508031033 29 0 0.0 0.0 0.00 0.00 0.00 87 1022.1
20260508030534 29 0 0.0 0.0 0.00 0.00 0.00 86 1022.2
20260508030045 29 0 0.0 0.0 0.00 0.00 0.00 86 1022.1
20260508025533 28 0 0.0 0.0 0.00 0.00 0.00 85 1022.0
20260508025034 29 0 0.0 0.0 0.00 0.00 0.00 85 1022.1
20260508024541 29 0 0.0 0.0 0.00 0.00 0.00 86 1022.0
20260508024033 28 0 0.0 0.0 0.00 0.00 0.00 85 1021.9
20260508023533 28 0 0.0 0.0 0.00 0.00 0.00 85 1021.9
20260508023038 28 0 0.0 0.0 0.00 0.00 0.00 84 1021.9
20260508022533 28 0 0.0 0.0 0.00 0.00 0.00 85 1021.8
20260508022033 29 0 0.0 0.0 0.00 0.00 0.00 86 1021.8
20260508021551 29 0 0.0 0.0 0.00 0.00 0.00 86 1021.9
20260508021032 29 0 0.0 0.0 0.00 0.00 0.00 86 1021.8
20260508020532 28 0 0.0 0.0 0.00 0.00 0.00 86 1021.8
20260508020049 28 0 0.0 0.0 0.00 0.00 0.00 85 1021.8
20260508015532 29 0 0.0 0.0 0.00 0.00 0.00 85 1021.8
20260508015032 29 0 0.0 0.0 0.00 0.00 0.00 85 1021.8
20260508014544 29 0 0.0 0.0 0.00 0.00 0.00 84 1021.8
20260508014033 29 0 0.0 0.0 0.00 0.00 0.00 84 1021.9
20260508013533 29 0 0.0 0.0 0.00 0.00 0.00 83 1021.7
20260508013053 29 0 0.0 0.0 0.00 0.00 0.00 83 1021.7
20260508012533 29 0 0.0 0.0 0.00 0.00 0.00 83 1021.6
20260508012033 29 0 0.0 0.0 0.00 0.00 0.00 83 1021.6
20260508011543 29 0 0.0 0.0 0.00 0.00 0.00 80 1021.7
20260508011033 29 0 0.0 0.0 0.00 0.00 0.00 78 1021.6
20260508010534 30 0 0.0 0.0 0.00 0.00 0.00 79 1021.3
20260508010050 30 0 0.0 0.0 0.00 0.00 0.00 80 1021.1
20260508005533 30 0 0.0 0.0 0.00 0.00 0.00 79 1021.2
20260508005036 30 0 0.0 0.0 0.00 0.00 0.00 79 1021.2
20260508004545 31 0 0.0 0.0 0.00 0.00 0.00 79 1021.2
20260508004035 31 0 0.0 0.0 0.00 0.00 0.00 79 1021.2
20260508003532 31 0 0.0 0.0 0.00 0.00 0.00 77 1021.1
20260508003041 31 0 0.0 0.0 0.00 0.00 0.00 77 1021.1
20260508002532 31 0 0.0 0.0 0.00 0.00 0.00 77 1020.9
20260508002032 32 0 0.0 0.0 0.00 0.00 0.00 75 1020.8
20260508001607 32 0 0.0 0.0 0.00 0.00 0.00 73 1020.9
20260508001032 32 0 0.0 0.0 0.00 0.00 0.00 74 1020.9
20260508000533 33 0 0.0 0.0 0.00 0.00 0.00 75 1020.9
20260508000040 33 0 0.0 0.0 0.00 0.00 0.00 74 1020.9
20260507235533 33 0 0.0 0.0 0.00 0.00 0.00 74 1020.8
20260507235032 33 0 0.0 0.0 0.00 0.00 0.00 76 1020.9
20260507234547 33 0 0.0 0.0 0.00 0.00 0.00 77 1020.9
20260507234058 32 0 0.0 0.0 0.00 0.00 0.00 78 1021.0
20260507233533 33 0 0.0 0.0 0.00 0.00 0.00 77 1020.9
20260507233046 33 0 0.0 0.0 0.00 0.00 0.00 78 1020.7
20260507232534 33 0 0.0 0.0 0.00 0.00 0.00 79 1020.7
20260507232033 33 0 0.0 0.0 0.00 0.00 0.00 79 1020.7
20260507231545 33 0 0.0 0.0 0.00 0.00 0.00 79 1020.7
20260507231033 33 0 0.0 0.9 0.00 0.00 0.00 79 1020.7
20260507230534 34 0 0.0 0.9 0.00 0.00 0.00 78 1020.6
20260507230044 34 162 0.0 0.9 0.00 0.00 0.00 76 1020.7
20260507225538 34 0 0.0 0.0 0.00 0.00 0.00 68 1020.6
20260507225035 35 0 0.0 0.0 0.00 0.00 0.00 67 1020.4
20260507224554 35 0 0.0 0.0 0.00 0.00 0.00 66 1020.5
20260507224035 35 0 0.0 0.0 0.00 0.00 0.00 67 1020.4
20260507223535 35 0 0.0 0.0 0.00 0.00 0.00 67 1020.4
20260507223039 36 0 0.0 0.0 0.00 0.00 0.00 68 1020.5
20260507222535 36 0 0.0 0.0 0.00 0.00 0.00 65 1020.4
20260507222034 36 0 0.0 0.0 0.00 0.00 0.00 64 1020.4
20260507221547 36 0 0.0 0.0 0.00 0.00 0.00 63 1020.4
20260507221034 37 0 0.0 0.0 0.00 0.00 0.00 62 1020.4
20260507220534 37 0 0.0 0.9 0.00 0.00 0.00 61 1020.3
20260507220048 37 0 0.0 0.9 0.00 0.00 0.00 60 1020.3
20260507215536 38 262 0.0 0.0 0.00 0.00 0.00 61 1020.4
20260507215035 38 0 0.0 0.0 0.00 0.00 0.00 61 1020.3
20260507214548 38 0 0.0 0.0 0.00 0.00 0.00 61 1020.4
20260507214035 39 0 0.0 0.0 0.00 0.00 0.00 59 1020.4
20260507213534 40 0 0.0 0.0 0.00 0.00 0.00 56 1020.2
20260507213043 40 0 0.0 0.0 0.00 0.00 0.00 55 1020.3
20260507212534 40 0 0.0 0.0 0.00 0.00 0.00 58 1020.3
20260507212034 41 0 0.0 0.0 0.00 0.00 0.00 55 1020.3
20260507211543 40 0 0.0 0.0 0.00 0.00 0.00 56 1020.2
20260507211034 40 0 0.0 0.0 0.00 0.00 0.00 56 1020.1
20260507210539 41 0 0.0 0.0 0.00 0.00 0.00 57 1020.1
20260507210041 41 0 0.0 0.0 0.00 0.00 0.00 55 1020.1
20260507205536 42 0 0.0 0.0 0.00 0.00 0.00 54 1020.2
20260507205037 43 0 0.0 0.0 0.00 0.00 0.00 53 1020.1
20260507204552 43 0 0.0 0.0 0.00 0.00 0.00 51 1019.9
20260507204034 44 0 0.0 0.9 0.00 0.00 0.00 50 1019.8
20260507203535 44 0 0.0 0.9 0.00 0.00 0.00 49 1019.8
20260507203048 44 0 0.0 0.9 0.00 0.00 0.00 49 1019.9
20260507202536 44 0 0.0 0.9 0.00 0.00 0.00 49 1019.8
20260507202038 44 0 0.0 0.9 0.00 0.00 0.00 49 1019.8
20260507201552 44 259 0.0 0.9 0.00 0.00 0.00 50 1019.8
20260507201036 45 0 0.0 0.9 0.00 0.00 0.00 49 1019.8
20260507200536 45 0 0.0 1.7 0.00 0.00 0.00 48 1019.8
20260507200043 45 0 0.0 1.7 0.00 0.00 0.00 48 1019.7
20260507195534 45 0 0.0 1.7 0.00 0.00 0.00 46 1019.7
20260507195037 46 245 0.0 1.7 0.00 0.00 0.00 44 1019.6
20260507194541 47 0 0.0 3.5 0.00 0.00 0.00 42 1019.6
20260507194036 47 205 0.9 3.5 0.00 0.00 0.00 42 1019.5
20260507193535 47 0 0.0 0.9 0.00 0.00 0.00 40 1019.5
20260507193039 47 137 0.0 1.7 0.00 0.00 0.00 40 1019.3
20260507192535 48 0 0.0 1.7 0.00 0.00 0.00 39 1019.3
20260507192034 48 153 0.0 1.7 0.00 0.00 0.00 38 1019.2
20260507191552 48 250 0.0 1.7 0.00 0.00 0.00 38 1019.2
20260507191034 49 0 0.0 1.7 0.00 0.00 0.00 36 1019.2
20260507190535 49 276 0.9 1.7 0.00 0.00 0.00 36 1019.1
20260507190052 49 0 0.0 0.9 0.00 0.00 0.00 36 1019.1
20260507185534 50 0 0.0 1.7 0.00 0.00 0.00 35 1019.1
20260507185038 50 231 0.9 1.7 0.00 0.00 0.00 35 1019.0
20260507184548 50 0 0.0 1.7 0.00 0.00 0.00 35 1019.0
20260507184034 51 215 0.0 1.7 0.00 0.00 0.00 33 1018.9
20260507183535 51 215 0.9 4.3 0.00 0.00 0.00 34 1018.9
20260507183044 52 237 1.7 4.3 0.00 0.00 0.00 33 1018.9
20260507182534 52 215 1.7 4.3 0.00 0.00 0.00 33 1018.8
20260507182035 52 210 1.7 4.3 0.00 0.00 0.00 33 1018.9
20260507181540 52 162 2.6 4.3 0.00 0.00 0.00 32 1018.8
20260507181035 53 217 2.6 6.1 0.00 0.00 0.00 32 1018.8
20260507180535 53 229 3.5 7.0 0.00 0.00 0.00 32 1018.8
20260507180039 53 231 4.3 7.0 0.00 0.00 0.00 33 1018.7
20260507175534 53 221 3.5 7.8 0.00 0.00 0.00 32 1018.7
20260507175035 54 217 4.3 7.8 0.00 0.00 0.00 30 1018.7
20260507174545 54 206 4.3 8.7 0.00 0.00 0.00 32 1018.6
20260507174034 54 191 5.2 8.7 0.00 0.00 0.00 31 1018.6
20260507173539 54 169 5.2 8.7 0.00 0.00 0.00 31 1018.7
20260507173046 54 218 4.3 8.7 0.00 0.00 0.00 30 1018.5
20260507172536 54 205 2.6 6.1 0.00 0.00 0.00 33 1018.5
20260507172034 54 157 2.6 6.1 0.00 0.00 0.00 32 1018.5
20260507171543 54 225 4.3 8.7 0.00 0.00 0.00 32 1018.5
20260507171035 54 207 5.2 8.7 0.00 0.00 0.00 31 1018.4
20260507170535 54 209 4.3 9.6 0.00 0.00 0.00 31 1018.4
20260507170049 55 240 3.5 9.6 0.00 0.00 0.00 32 1018.4
20260507165534 54 176 5.2 10.4 0.00 0.00 0.00 31 1018.3
20260507165035 54 209 4.3 10.4 0.00 0.00 0.00 33 1018.5
20260507164547 55 173 2.6 9.6 0.00 0.00 0.00 31 1018.4
20260507164040 55 174 4.3 9.6 0.00 0.00 0.00 31 1018.3
20260507163536 54 213 1.7 7.8 0.00 0.00 0.00 31 1018.3
20260507163045 55 210 3.5 8.7 0.00 0.00 0.00 31 1018.2
20260507162535 54 80 2.6 8.7 0.00 0.00 0.00 32 1018.2
20260507162035 55 138 4.3 9.6 0.00 0.00 0.00 32 1018.2
20260507161546 55 205 3.5 9.6 0.00 0.00 0.00 33 1018.2
20260507161037 55 124 3.5 9.6 0.00 0.00 0.00 34 1018.2
20260507160535 55 354 2.6 8.7 0.00 0.00 0.00 32 1018.3
20260507160046 55 135 4.3 8.7 0.00 0.00 0.00 32 1018.3
20260507155535 55 161 4.3 8.7 0.00 0.00 0.00 33 1018.2
20260507155037 55 137 3.5 9.6 0.00 0.00 0.00 34 1018.2
20260507154548 55 99 3.5 9.6 0.00 0.00 0.00 33 1018.3
20260507154034 55 65 4.3 9.6 0.00 0.00 0.00 34 1018.2
20260507153535 55 133 2.6 7.8 0.00 0.00 0.00 33 1018.2
20260507153051 55 136 2.6 12.2 0.00 0.00 0.00 35 1018.1
20260507152534 56 163 4.3 12.2 0.00 0.00 0.00 35 1018.0
20260507152036 55 136 6.1 12.2 0.00 0.00 0.00 34 1018.1
20260507151547 56 154 3.5 11.3 0.00 0.00 0.00 35 1018.1
20260507151034 55 142 5.2 11.3 0.00 0.00 0.00 33 1018.1
20260507150535 56 153 2.6 10.4 0.00 0.00 0.00 34 1018.1
20260507150047 56 164 2.6 9.6 0.00 0.00 0.00 33 1018.0
20260507145535 56 223 6.1 9.6 0.00 0.00 0.00 35 1018.0
20260507145034 56 262 4.3 9.6 0.00 0.00 0.00 34 1017.9
20260507144545 55 179 4.3 9.6 0.00 0.00 0.00 34 1018.0
20260507144037 56 136 3.5 9.6 0.00 0.00 0.00 34 1018.0
20260507143535 56 228 6.1 9.6 0.00 0.00 0.00 32 1018.0
20260507143047 56 158 3.5 8.7 0.00 0.00 0.00 36 1018.0
20260507142534 55 90 4.3 8.7 0.00 0.00 0.00 34 1018.0
20260507142034 55 111 4.3 8.7 0.00 0.00 0.00 33 1018.0
20260507141543 56 138 4.3 8.7 0.00 0.00 0.00 34 1018.0
20260507141034 56 192 4.3 12.2 0.00 0.00 0.00 33 1018.0
20260507140534 57 219 6.1 12.2 0.00 0.00 0.00 34 1018.0
20260507140045 56 99 3.5 12.2 0.00 0.00 0.00 34 1017.9
20260507135534 56 172 5.2 12.2 0.00 0.00 0.00 34 1017.8
20260507135033 56 136 2.6 9.6 0.00 0.00 0.00 35 1017.9
20260507134553 56 165 4.3 9.6 0.00 0.00 0.00 33 1018.0
20260507134033 57 155 2.6 12.2 0.00 0.00 0.00 34 1017.9
20260507133533 56 136 4.3 12.2 0.00 0.00 0.00 34 1017.8
20260507133048 57 208 4.3 12.2 0.00 0.00 0.00 34 1017.9
20260507132532 57 203 1.7 5.2 0.00 0.00 0.00 30 1017.8
20260507132036 56 217 1.7 7.0 0.00 0.00 0.00 29 1017.8
20260507131556 56 139 2.6 8.7 0.00 0.00 0.00 29 1017.8
20260507131032 57 100 2.6 8.7 0.00 0.00 0.00 27 1017.7
20260507130532 57 217 3.5 7.0 0.00 0.00 0.00 29 1017.7
20260507130101 57 214 2.6 7.0 0.00 0.00 0.00 27 1017.7
20260507125532 57 119 1.7 4.3 0.00 0.00 0.00 31 1017.7
20260507125033 56 165 1.7 6.1 0.00 0.00 0.00 30 1017.8
20260507124551 57 126 2.6 6.1 0.00 0.00 0.00 29 1017.8
20260507124036 57 123 1.7 6.1 0.00 0.00 0.00 28 1017.8
20260507123533 56 321 0.9 6.1 0.00 0.00 0.00 30 1017.8
20260507123042 55 269 3.5 6.1 0.00 0.00 0.00 28 1017.8
20260507122532 55 83 0.9 7.8 0.00 0.00 0.00 28 1017.9
20260507122033 55 236 3.5 7.8 0.00 0.00 0.00 29 1017.9
20260507121540 55 282 1.7 6.1 0.00 0.00 0.00 29 1017.8